Skip Page Navigation
NASA JPL Caltech
NASA Logo - Jet Propulsion Laboratory + View the NASA Portal
+ Center for Near-Earth Object Studies
JPL Home Earth Solar System Stars & Galaxies Technology
JPL Solar System Dynamics
BODIES ORBITS EPHEMERIDES TOOLS PHYSICAL DATA DISCOVERY FAQ SITE MAP
JPL Small-Body Database Browser
Search: [ help ]  
13356 (1998 TX17)
Classification: Outer Main-belt Asteroid          SPK-ID: 2013356
Ephemeris | Orbit Diagram | Orbital Elements | Mission Design | Physical Parameters | Discovery Circumstances | Close-Approach Data ]

[ show orbit diagram ]
Orbital Elements at Epoch 2459200.5 (2020-Dec-17.0) TDB
Reference: JPL 37 (heliocentric ecliptic J2000)
 Element Value Uncertainty (1-sigma)   Units 
e .0349714429994411 4.3706e-08  
a 3.205026467308165 1.9846e-08 au
q 3.092942066894997 1.3886e-07 au
i 7.627999826410939 4.7189e-06 deg
node 175.7461644392394 2.4038e-05 deg
peri 334.271759305728 6.1276e-05 deg
M 201.6199957296125 5.9218e-05 deg
tp 2460122.527144524507
(2023-Jun-27.02714452)
0.00034858 TDB
period 2095.78079984232
5.74
1.9466e-05
5.33e-08
d
yr
n .1717736893224164 1.5955e-09 deg/d
Q 3.317110867721333 2.054e-08 au
  Orbit Determination Parameters
   # obs. used (total)      1820  
   data-arc span      11665 days (31.94 yr)  
   first obs. used      1989-02-11  
   last obs. used      2021-01-19  
   planetary ephem.      DE441  
   SB-pert. ephem.      SB441-N16  
   condition code      0  
   norm. resid. RMS      .47962  
   source      ORB  
   producer      Otto Matic  
   solution date      2021-Apr-12 23:53:41  

Additional Information
 Earth MOID = 2.10422 au 
 Jupiter MOID = 1.65899 au 
 T_jup = 3.178 
[ show covariance matrix ]

Ephemeris | Orbit Diagram | Orbital Elements | Mission Design | Physical Parameters | Discovery Circumstances | Close-Approach Data ]

Physical Parameter Table
Parameter Symbol Value Units Sigma Reference Notes
absolute magnitude H 13.2   n/a MPO449043  
diameter diameter 17.205 km 4.294 urn:nasa:pds:neowise_diameters_albedos::2.0[mainbelt] (http://adsabs.harvard.edu/abs/2012ApJ...759L...8M)  
geometric albedo albedo 0.048   0.016 urn:nasa:pds:neowise_diameters_albedos::2.0[mainbelt] (http://adsabs.harvard.edu/abs/2012ApJ...759L...8M)  

13356 (1998 TX17)          Discovered 1998-Oct-14 by Korlevic, K. at Visnjan
Reference: 20000124/Numbers.arcLast Updated: 2004-04-19

[ show close-approach data ]
Ephemeris | Orbit Diagram | Orbital Elements | Mission Design | Physical Parameters | Discovery Circumstances | Close-Approach Data ]
ABOUT SSD CREDITS/AWARDS PRIVACY/COPYRIGHT GLOSSARY LINKS
FirstGov 2021-Apr-19 12:15 UT
(server date/time)  
NASA Home Page
Site Manager:   Ryan S. Park
Webmaster  Alan B. Chamberlin